Regional Weather Roundup
Issued by NWS Charleston, WV

Home | Current Version | Previous Version | Text Only | Print | Product List | Glossary Off
Versions: 1 2 3 4 5 6 7 8 9 10 11 12 13 14 15 16 17 18 19 20 21 22 23 24 25 26 27 28 29 30 31 32 33 34 35 36 37 38 39 40 41 42 43 44 45 46 47 48 49 50

000
ASUS41 KRLX 040910
RWRRLX
West Virginia Regional Weather Roundup
National Weather Service Charleston WV
500 AM EDT FRI SEP 04 2015

Note: "fair" indicates few or no clouds below 12,000 feet with no
significant weather and/or obstructions to visibility.

WVZ003-041000-
Northern Panhandle of West Virginia

CITY           SKY/WX    TMP DP  RH WIND       PRES   REMARKS
WHEELING       MOCLDY    66  64  93 CALM      30.04R FOG
$$

WVZ009-041000-
Northwest West Virginia

CITY           SKY/WX    TMP DP  RH WIND       PRES   REMARKS
PARKERSBURG    MOCLDY    66  65  96 CALM      30.05R
$$

WVZ006-041000-
Western West Virginia

CITY           SKY/WX    TMP DP  RH WIND       PRES   REMARKS
HUNTINGTON     CLEAR     66  65  96 CALM      30.01R FOG
$$

WVZ015-041000-
West Central West Virginia

CITY           SKY/WX    TMP DP  RH WIND       PRES   REMARKS
CHARLESTON     FOG       67  66  97 CALM      30.02R VSB 1/4
$$

WVZ022-031-041000-
North Central West Virginia

CITY           SKY/WX    TMP DP  RH WIND       PRES   REMARKS
CLARKSBURG     PTCLDY    63  62  97 NW5       30.04R FOG
MORGANTOWN     PTCLDY    68  63  84 W3        30.04S HAZE
$$

WVZ025-035-042-045-041000-
Southern West Virginia

CITY           SKY/WX    TMP DP  RH WIND       PRES   REMARKS
BECKLEY        CLEAR     64  61  90 CALM      30.09S FOG
LOGAN          FOG       66  66 100 CALM      30.05R VSB<1/4
BLUEFIELD      CLEAR     66  62  87 W3        30.12R
LEWISBURG      FOG       63  61  94 CALM      30.09R VSB 1/4
$$

WVZ047-041000-
Northern Mountains of West Virginia

CITY           SKY/WX    TMP DP  RH WIND       PRES   REMARKS
ELKINS         FOG       65  63  93 S3        30.08R VSB 1/2
$$

WVZ052-041000-
Eastern Panhandle of West Virginia

CITY           SKY/WX    TMP DP  RH WIND       PRES   REMARKS
MARTINSBURG    CLEAR     65  64  97 CALM      29.97S FOG
PETERSBURG     FOG       65  65 100 CALM      30.02R VSB<1/4
$$



USA.gov is the U.S. government's official web portal to all federal, state and local government web resources and services.